Weather History for Lawrence, MA

Change the Weather History Date:

Sunday, May 6, 2012

  Actual Average Record
Temperature  
Mean Temperature 54 °F -  
Max Temperature 62 °F 61 °F 90 °F (1930)
Min Temperature 46 °F 42 °F 32 °F (1992)
Degree Days  
Heating Degree Days 11    
Growing Degree Days 4 (Base 50)    
Moisture  
Dew Point 41 °F    
Average Humidity 65    
Maximum Humidity 93    
Minimum Humidity 41    
Precipitation  
Precipitation 0.00 in - - ()
Sea Level Pressure  
Sea Level Pressure 30.12 in    
Wind  
Wind Speed 4 mph (East)    
Max Wind Speed 10 mph    
Max Gust Speed 17 mph    
Visibility 10 miles    
Events      
Averages and records for this station are not official NWS values.
T = Trace of Precipitation, MM = Missing Value Source: NWS Daily Summary

Daily Weather History Graph

Daily Weather History Graph

Search for Another Location

Airport:

Trip Planner

Search our weather history database for the weather conditions in past years. The results will help you decide how hot, cold, wet, or windy it might be!

Date:

Astronomy

May. 06, 2012 Rise Set
Actual Time 5:31 AM EDT 7:51 PM EDT
Civil Twilight 5:00 AM EDT 8:22 PM EDT
Nautical Twilight 4:21 AM EDT 9:01 PM EDT
Astronomical Twilight 3:38 AM EDT 9:45 PM EDT
Moon 8:54 PM EDT (5/6) 5:38 AM EDT (5/6)
Length of Visible Light 15h 22m
Length of Day
14h 19m
Full, 100% of the Moon is Illuminated
May 6
Full
May 12
Last Quarter
May 20
New
May 28
First Quarter
Jun 4
Full

Hourly Weather History & Observations

Time (EDT) Temp. Dew Point Humidity Pressure Visibility Wind Dir Wind Speed Gust Speed Precip Events Conditions
12:54 AM 51.1 °F 46.9 °F 86% 30.12 in 10.0 mi Calm Calm - N/A   Overcast
1:54 AM 51.1 °F 46.9 °F 86% 30.11 in 10.0 mi ENE 3.5 mph - N/A   Mostly Cloudy
2:54 AM 50.0 °F 46.0 °F 86% 30.10 in 9.0 mi Calm Calm - N/A   Scattered Clouds
3:54 AM 46.9 °F 45.0 °F 93% 30.10 in 8.0 mi Calm Calm - N/A   Mostly Cloudy
4:54 AM 48.0 °F 45.0 °F 89% 30.10 in 5.0 mi Calm Calm - N/A   Overcast
5:54 AM 50.0 °F 46.0 °F 86% 30.12 in 8.0 mi Calm Calm - N/A   Overcast
6:54 AM 52.0 °F 48.0 °F 86% 30.12 in 10.0 mi ENE 3.5 mph - N/A   Mostly Cloudy
7:54 AM 54.0 °F 46.0 °F 75% 30.13 in 10.0 mi NNE 8.1 mph - N/A   Partly Cloudy
8:54 AM 54.0 °F 44.1 °F 69% 30.14 in 10.0 mi NE 8.1 mph - N/A   Overcast
9:29 AM 53.6 °F 44.6 °F 72% 30.15 in 10.0 mi ENE 9.2 mph - N/A   Overcast
9:45 AM 53.6 °F 44.6 °F 72% 30.15 in 10.0 mi ENE 9.2 mph - N/A   Mostly Cloudy
9:54 AM 53.1 °F 44.1 °F 71% 30.16 in 10.0 mi ENE 9.2 mph - N/A   Overcast
10:22 AM 55.4 °F 41.0 °F 58% 30.16 in 10.0 mi East 10.4 mph 17.3 mph N/A   Mostly Cloudy
10:54 AM 55.9 °F 41.0 °F 57% 30.18 in 10.0 mi ENE 8.1 mph - N/A   Overcast
11:54 AM 57.0 °F 41.0 °F 55% 30.15 in 10.0 mi East 8.1 mph - N/A   Partly Cloudy
12:54 PM 57.9 °F 39.0 °F 49% 30.15 in 10.0 mi East 5.8 mph - N/A   Clear
1:54 PM 59.0 °F 39.0 °F 48% 30.13 in 10.0 mi East 9.2 mph - N/A   Clear
2:54 PM 61.0 °F 39.0 °F 44% 30.11 in 10.0 mi Variable 3.5 mph - N/A   Clear
3:54 PM 61.0 °F 39.0 °F 44% 30.09 in 10.0 mi Variable 6.9 mph - N/A   Clear
4:54 PM 62.1 °F 39.0 °F 43% 30.09 in 10.0 mi Variable 3.5 mph - N/A   Clear
5:54 PM 61.0 °F 37.0 °F 41% 30.09 in 10.0 mi SE 6.9 mph - N/A   Clear
6:54 PM 59.0 °F 37.9 °F 46% 30.09 in 10.0 mi South 4.6 mph - N/A   Clear
7:54 PM 55.0 °F 37.0 °F 51% 30.10 in 10.0 mi SE 3.5 mph - N/A   Clear
8:54 PM 51.1 °F 35.1 °F 54% 30.12 in 10.0 mi Calm Calm - N/A   Clear
9:54 PM 50.0 °F 34.0 °F 54% 30.12 in 10.0 mi Calm Calm - N/A   Clear
10:54 PM 48.9 °F 36.0 °F 61% 30.12 in 10.0 mi Calm Calm - N/A   Clear
11:54 PM 48.0 °F 37.0 °F 66% 30.12 in 10.0 mi Calm Calm - N/A   Clear